FW1542 Weather Reports


time (UTC)temp
C
wind
direction
speed
KPH
gust
KPH
rain 1hr
cm
rain 24hr
cm
rain mn
cm
humidity
%
barometer
mb
20260504213042 26 192 8.0 22.5 0.00 0.00 0.00 67 1010.0
20260504213005 26 167 8.0 19.3 0.00 0.00 0.00 68 1012.8
20260504211546 26 192 9.7 22.5 0.00 0.00 0.00 67 1010.5
20260504211508 26 176 8.0 20.9 0.00 0.00 0.00 68 1013.0
20260504210107 26 159 8.0 19.3 0.00 0.00 0.00 69 1013.2
20260504210055 26 113 4.8 22.5 0.00 0.00 0.00 68 1010.7
20260504204620 26 206 4.8 17.7 0.00 0.00 0.00 68 1013.6
20260504204607 26 206 6.4 22.5 0.00 0.00 0.00 68 1010.9
20260504203131 26 207 4.8 19.3 0.00 0.00 0.00 69 1013.9
20260504203104 26 153 6.4 19.3 0.00 0.00 0.00 68 1011.2
20260504201556 26 241 8.0 19.3 0.00 0.00 0.00 68 1014.0
20260504201546 26 169 9.7 24.1 0.00 0.00 0.00 68 1011.5
20260504200054 26 185 6.4 20.9 0.00 0.00 0.00 69 1014.4
20260504200049 26 196 6.4 22.5 0.00 0.00 0.00 68 1011.6
20260504194551 26 208 6.4 19.3 0.00 0.00 0.00 69 1014.5
20260504194542 26 207 4.8 19.3 0.00 0.00 0.00 69 1011.8
20260504193051 26 238 6.4 17.7 0.00 0.00 0.00 69 1014.7
20260504193043 26 229 4.8 20.9 0.00 0.00 0.00 69 1011.9
20260504191553 26 192 4.8 17.7 0.00 0.00 0.00 70 1014.9
20260504191542 26 202 4.8 19.3 0.00 0.00 0.00 69 1012.0
20260504190053 25 153 8.0 19.3 0.00 0.00 0.00 69 1012.1
20260504184546 25 180 6.4 24.1 0.00 0.00 0.00 68 1012.2
20260504183050 25 220 6.4 24.1 0.00 0.00 0.00 69 1012.7
20260504183043 26 198 9.7 20.9 0.00 0.00 0.00 69 1015.4
20260504181541 25 170 9.7 24.1 0.00 0.00 0.00 70 1012.6
20260504180053 24 194 11.3 20.9 0.00 0.00 0.00 72 1013.1
20260504180038 24 219 9.7 19.3 0.00 0.00 0.00 73 1015.7
20260504174541 25 216 8.0 19.3 0.00 0.00 0.00 71 1013.1
20260504174538 25 216 6.4 19.3 0.00 0.00 0.00 71 1015.7
20260504173051 24 188 6.4 17.7 0.00 0.00 0.00 72 1013.2
20260504173039 24 208 8.0 17.7 0.00 0.00 0.00 72 1015.9
20260504171545 24 183 6.4 22.5 0.00 0.00 0.00 72 1013.5
20260504171537 24 183 8.0 22.5 0.00 0.00 0.00 73 1016.3
20260504081545 17 216 4.8 16.1 0.00 0.00 0.00 79 1015.0
20260504081533 17 216 6.4 14.5 0.00 0.00 0.00 80 1017.9
20260504044558 20 157 8.0 19.3 0.00 0.00 0.00 70 1019.9
20260504044546 19 132 8.0 20.9 0.00 0.00 0.00 69 1017.0
20260504043100 20 140 9.7 20.9 0.00 0.00 0.00 68 1019.8
20260504043056 20 117 9.7 22.5 0.00 0.00 0.00 67 1016.9
20260504041604 20 146 9.7 22.5 0.00 0.00 0.00 67 1019.8
20260504041549 20 124 9.7 22.5 0.00 0.00 0.00 66 1017.0
20260504040056 20 147 9.7 22.5 0.00 0.00 0.00 65 1019.9
20260504040046 20 139 9.7 24.1 0.00 0.00 0.00 64 1017.1
20260504034613 21 148 9.7 22.5 0.00 0.00 0.00 64 1019.9
20260504034548 21 131 9.7 22.5 0.00 0.00 0.00 63 1017.0
20260504033056 21 151 8.0 20.9 0.00 0.00 0.00 63 1020.0
20260504033043 21 110 8.0 20.9 0.00 0.00 0.00 62 1017.0
20260504031556 21 166 8.0 14.5 0.00 0.00 0.00 62 1019.9
20260504031544 21 174 6.4 16.1 0.00 0.00 0.00 62 1017.0
20260504030054 20 124 6.4 14.5 0.00 0.00 0.00 61 1019.8
20260504030045 20 144 6.4 16.1 0.00 0.00 0.00 61 1016.8
20260504024555 20 84 8.0 14.5 0.00 0.00 0.00 60 1019.6
20260504024546 20 171 8.0 14.5 0.00 0.00 0.00 59 1016.7
20260504023054 20 113 3.2 6.4 0.00 0.00 0.00 58 1019.6
20260504023043 20 113 3.2 6.4 0.00 0.00 0.00 58 1016.7
20260504021554 21 113 1.6 6.4 0.00 0.00 0.00 57 1019.7
20260504021541 21 114 1.6 6.4 0.00 0.00 0.00 56 1016.7
20260504020110 21 126 3.2 6.4 0.00 0.00 0.00 55 1019.6
20260504020044 21 126 3.2 6.4 0.00 0.00 0.00 55 1016.6
20260504014558 22 129 1.6 4.8 0.00 0.00 0.00 53 1019.5
20260504014543 22 129 1.6 6.4 0.00 0.00 0.00 53 1016.5
20260504013111 22 88 3.2 11.3 0.00 0.00 0.00 52 1019.2
20260504013101 22 88 3.2 11.3 0.00 0.00 0.00 51 1016.1
20260504011552 23 125 4.8 11.3 0.00 0.00 0.00 49 1019.2
20260504011543 23 159 4.8 11.3 0.00 0.00 0.00 48 1016.1
20260504010051 23 144 6.4 12.9 0.00 0.00 0.00 48 1019.2
20260504010043 23 106 6.4 12.9 0.00 0.00 0.00 48 1016.2
20260504004551 23 174 4.8 14.5 0.00 0.00 0.00 47 1019.2
20260504004541 23 174 4.8 16.1 0.00 0.00 0.00 47 1016.1
20260504003049 23 140 8.0 16.1 0.00 0.00 0.00 47 1019.3
20260504003039 23 144 8.0 19.3 0.00 0.00 0.00 46 1016.2
20260504001551 24 148 6.4 14.5 0.00 0.00 0.00 48 1019.2
20260504001547 24 163 6.4 14.5 0.00 0.00 0.00 47 1016.3
20260504000046 24 132 6.4 17.7 0.00 0.00 0.00 47 1019.4
20260504000041 24 126 4.8 22.5 0.00 0.00 0.00 48 1016.3
20260503234546 24 183 8.0 17.7 0.00 0.00 0.00 47 1019.5
20260503234543 24 167 6.4 17.7 0.00 0.00 0.00 46 1016.5
20260503233050 24 142 11.3 22.5 0.00 0.00 0.00 45 1016.7
20260503233045 24 146 11.3 22.5 0.00 0.00 0.00 46 1019.7
20260503231543 25 148 11.3 19.3 0.00 0.00 0.00 45 1019.8
20260503230044 25 102 11.3 20.9 0.00 0.00 0.00 44 1017.0
20260503224542 25 142 6.4 20.9 0.00 0.00 0.00 42 1016.9
20260503223044 25 178 11.3 24.1 0.00 0.00 0.00 43 1017.0
20260503223041 25 178 11.3 24.1 0.00 0.00 0.00 43 1019.9
20260503221558 25 124 6.4 22.5 0.00 0.00 0.00 42 1017.3
20260503221536 25 165 9.7 22.5 0.00 0.00 0.00 42 1020.3
20260503220050 25 126 8.0 25.7 0.00 0.00 0.00 41 1017.5
20260503220035 25 126 9.7 24.1 0.00 0.00 0.00 42 1020.6
20260503214545 25 173 8.0 22.5 0.00 0.00 0.00 44 1017.8
20260503214539 25 173 6.4 22.5 0.00 0.00 0.00 45 1020.8